Location: Obersdorf
(47.4079°N, 10.2781°E)
Time: 03:14:00
(UTC+02:00)

Envisat - Pass Details

Date: 01 October 2021
Orbit: 764 x 766 km, 98.2° (Epoch: 17 October)

Event Time Altitude Azimuth Distance (km) Brightness Sun altitude
Rises 05:33:22 0° 24° (NNE) 3,242 6.8 -18.3°
Reaches altitude 10° 05:36:05 10° 37° (NE) 2,310 6.2 -17.9°
Maximum altitude 05:40:15 25° 93° (E) 1,507 5.3 -17.2°
Drops below altitude 10° 05:44:23 10° 148° (SSE) 2,296 5.7 -16.5°
Sets 05:47:04 0° 161° (SSE) 3,217 6.3 -16.1°
